Stations météo

Publicité
Colmar, France (7197): Température de l'air & dewpoint: 24.03.2017 14:00:00 - 30.03.2017 14:00:00 (CEST)Colmar, France (7197): Température de l'air 5cm: 24.03.2017 14:00:00 - 30.03.2017 14:00:00 (CEST)Colmar, France (7197): Température de l'air -20cm & Température de l'air -100cm: 24.03.2017 14:00:00 - 30.03.2017 14:00:00 (CEST)Colmar, France (7197): Vitesse du vent & gusts: 24.03.2017 14:00:00 - 30.03.2017 14:00:00 (CEST)Colmar, France (7197): Direction du vent: 24.03.2017 14:00:00 - 30.03.2017 14:00:00 (CEST)Colmar, France (7197): reduced air pressure: 24.03.2017 14:00:00 - 30.03.2017 14:00:00 (CEST)Colmar, France (7197): visibility: 24.03.2017 14:00:00 - 30.03.2017 14:00:00 (CEST)Colmar, France (7197): Ensoleillement: 24.03.2017 14:00:00 - 30.03.2017 14:00:00 (CEST)Colmar, France (7197): Quantités de précipitations: 24.03.2017 14:00:00 - 30.03.2017 14:00:00 (CEST)
Date & Time tt [°C] td [°C] tt 5cm [°C] tt -20cm [°C] tt -100cm [°C] ff [km/h] ff [knt] fx [km/h] fx [knt] dd ppp [hPa] vv [km] sd [min] rr [mm]
30.03.2017 14:00:00 20,6 6,9 - - - 5 3 16 9 ENE 1024,8 20 - -
30.03.2017 13:00:00 19,1 6,9 - - - 8 4 15 8 N 1025,7 20 - 0,0
30.03.2017 12:00:00 17,3 6,8 20,1 12,0 9,7 6 4 15 8 N 1026,6 20 60 0,0
30.03.2017 11:00:00 15,5 7,5 16,6 11,6 9,7 5 3 10 6 NNE 1027,2 20 60 0,0
30.03.2017 10:00:00 13,6 7,1 11,5 11,5 9,7 4 2 11 6 E 1027,5 20 60 0,0
30.03.2017 09:00:00 10,4 6,5 - - - 2 1 4 2 NNE 1028,0 20 - 0,0
30.03.2017 08:00:00 4,5 3,3 1,1 11,9 9,7 0 0 3 1 N 1028,5 20 3 0,0
30.03.2017 07:00:00 3,8 2,6 1,1 12,3 9,6 0 0 4 2 N 1028,4 20 0 0,0
30.03.2017 06:00:00 4,0 2,5 1,6 12,7 9,6 3 2 5 3 SSW 1028,5 20 0 0,0
30.03.2017 05:00:00 5,0 3,7 1,9 13,0 9,6 2 1 4 2 SSW 1028,4 20 0 0,0
30.03.2017 04:00:00 5,1 3,1 2,4 13,4 9,6 0 0 6 3 N 1028,4 20 0 0,0
30.03.2017 03:00:00 6,4 4,2 3,4 13,8 9,6 3 2 6 3 S 1028,6 20 0 0,0
30.03.2017 02:00:00 8,1 4,3 5,3 14,1 9,6 0 0 9 5 N 1028,5 20 0 0,0
30.03.2017 01:00:00 10,7 5,2 5,1 14,5 9,6 6 3 8 4 N 1028,1 20 0 0,0
30.03.2017 00:00:00 11,1 5,2 5,5 14,9 9,6 5 3 9 5 N 1028,0 20 0 0,0
29.03.2017 23:00:00 11,8 5,2 6,0 15,3 9,6 6 3 9 5 N 1027,7 20 0 0,0
29.03.2017 22:00:00 12,8 5,0 9,5 15,7 9,5 7 4 12 7 N 1027,2 20 0 0,0
29.03.2017 21:00:00 14,7 4,9 8,4 16,0 9,5 8 4 13 7 N 1026,4 20 0 0,0
29.03.2017 20:00:00 16,6 4,6 12,1 16,2 9,5 3 2 10 5 E 1025,4 20 33 0,0
29.03.2017 19:00:00 19,9 4,8 20,6 16,1 9,5 4 2 14 8 NNE 1024,8 20 60 0,0
29.03.2017 18:00:00 21,0 4,5 24,8 15,8 9,5 3 1 11 6 NE 1024,5 20 60 0,0
29.03.2017 17:00:00 21,3 4,8 25,2 15,3 9,5 6 3 16 9 SSW 1024,8 20 60 0,0
29.03.2017 16:00:00 21,4 5,3 25,1 14,5 9,5 7 4 15 8 SW 1025,5 20 60 0,0
29.03.2017 15:00:00 20,6 5,0 25,7 13,6 9,5 7 4 18 10 WNW 1026,2 20 60 0,0
29.03.2017 14:00:00 20,1 5,7 24,5 12,7 9,5 5 3 14 8 NW 1026,8 20 60 0,0
29.03.2017 13:00:00 19,5 5,5 24,0 11,8 9,4 6 3 15 8 SW 1027,6 20 60 0,0
29.03.2017 12:00:00 18,1 6,6 19,3 11,2 9,4 6 4 15 8 E 1028,3 20 60 0,0
29.03.2017 11:00:00 15,3 7,3 15,1 10,8 9,5 8 4 14 8 WSW 1028,9 20 60 0,0
29.03.2017 10:00:00 12,9 6,9 11,1 10,7 9,4 6 3 10 5 SSW 1028,9 20 60 0,0
29.03.2017 09:00:00 10,1 6,6 4,4 10,8 9,4 4 2 10 6 SW 1029,0 20 60 0,0
29.03.2017 08:00:00 4,5 3,6 0,5 11,1 9,4 4 2 7 4 SW 1029,2 20 23 0,0
29.03.2017 07:00:00 3,2 2,0 0,5 11,4 9,4 4 2 8 5 SSW 1029,0 19 0 0,0
29.03.2017 06:00:00 4,9 3,7 2,3 11,7 9,4 5 3 8 4 ESE 1028,5 20 0 0,0
29.03.2017 05:00:00 5,4 3,6 - - - 4 2 8 4 WSW 1028,2 20 - -
29.03.2017 04:00:00 7,2 3,8 2,4 12,4 9,4 5 3 10 5 SW 1027,9 20 0 0,0
29.03.2017 03:00:00 6,0 3,8 3,4 12,7 9,4 5 3 8 4 SSW 1028,0 20 0 0,0
29.03.2017 02:00:00 6,6 3,4 3,7 13,1 9,3 3 2 8 4 S 1027,8 20 0 0,0
29.03.2017 01:00:00 7,6 4,0 4,5 13,5 9,3 2 1 17 9 S 1027,4 20 0 0,0
29.03.2017 00:00:00 8,1 3,9 4,7 13,9 9,3 5 3 8 4 SSW 1026,8 20 0 0,0
28.03.2017 23:00:00 9,6 4,2 5,8 14,3 9,4 0 0 6 3 N 1026,1 20 0 0,0
28.03.2017 22:00:00 12,8 4,7 - - - 0 0 11 6 N 1025,3 20 - 0,0
28.03.2017 21:00:00 13,8 4,1 9,6 14,9 9,3 8 4 13 7 WSW 1024,5 20 0 0,0
28.03.2017 20:00:00 16,9 3,9 14,0 15,0 9,3 10 5 16 8 WSW 1023,3 20 31 0,0
28.03.2017 19:00:00 20,8 4,8 21,7 14,8 9,3 14 7 23 13 NW 1022,6 20 60 0,0
28.03.2017 18:00:00 21,0 4,5 20,1 14,7 9,3 12 6 30 16 N 1022,2 20 4 0,0
28.03.2017 17:00:00 22,4 4,0 24,8 14,2 9,3 20 11 32 17 SW 1021,8 20 60 0,0
28.03.2017 16:00:00 22,2 5,2 25,3 13,5 9,3 16 9 37 20 SW 1022,1 19 60 0,0
28.03.2017 15:00:00 21,7 3,8 24,4 12,6 9,3 21 11 36 19 SW 1022,4 20 60 0,0
28.03.2017 14:00:00 20,4 4,8 23,1 11,8 9,2 21 12 39 21 SSW 1023,0 20 60 0,0
28.03.2017 13:00:00 19,0 5,1 21,6 11,0 9,3 21 11 32 18 SSW 1023,7 20 60 0,0
28.03.2017 12:00:00 18,2 5,4 19,0 10,3 9,2 16 8 31 17 SSW 1024,0 20 60 0,0
28.03.2017 11:00:00 16,5 5,4 16,0 9,9 9,2 18 10 33 18 SSW 1024,1 20 60 0,0
28.03.2017 10:00:00 13,8 5,9 10,0 9,8 9,2 2 1 6 3 E 1024,2 20 60 0,0
28.03.2017 09:00:00 9,7 4,9 3,7 9,9 9,2 0 0 2 1 N 1024,4 20 60 0,0
28.03.2017 08:00:00 4,6 2,5 1,2 10,1 9,2 0 0 8 4 N 1024,7 20 21 0,0
28.03.2017 07:00:00 4,7 2,7 1,6 10,4 9,2 6 3 11 6 WSW 1024,2 20 0 0,0
28.03.2017 06:00:00 6,3 3,3 4,6 10,7 9,2 6 3 14 7 SSW 1024,0 20 0 0,0
28.03.2017 05:00:00 5,8 3,1 3,1 11,1 9,2 9 5 14 7 SW 1023,9 20 0 0,0
28.03.2017 04:00:00 6,1 3,6 1,0 11,4 9,2 8 5 12 7 SSW 1023,6 20 0 0,0
28.03.2017 03:00:00 4,4 1,9 0,6 11,8 9,2 3 2 16 8 SSW 1023,9 20 0 0,0
28.03.2017 02:00:00 4,5 1,9 1,1 12,3 9,2 3 2 8 4 SW 1023,7 20 0 0,0
28.03.2017 01:00:00 4,6 1,4 1,2 12,7 9,2 6 3 8 4 SW 1023,6 20 0 0,0
28.03.2017 00:00:00 5,7 1,8 2,1 13,1 9,1 3 1 4 2 WSW 1023,2 20 0 0,0
27.03.2017 23:00:00 6,6 1,7 2,9 13,5 9,1 3 1 5 3 S 1022,8 20 0 0,0
27.03.2017 22:00:00 9,1 2,2 4,0 13,8 9,1 0 0 2 1 N 1022,4 20 0 0,0
27.03.2017 21:00:00 11,6 2,6 5,3 14,2 9,1 0 0 9 5 N 1021,8 20 0 0,0
27.03.2017 20:00:00 14,6 2,8 9,7 14,3 9,1 6 4 13 7 N 1021,0 20 30 0,0
27.03.2017 19:00:00 18,2 3,3 - - - 8 4 13 7 NNW 1020,4 20 - 0,0
27.03.2017 18:00:00 19,3 3,0 22,7 13,9 9,1 5 3 14 8 N 1020,3 20 60 0,0
27.03.2017 17:00:00 18,9 1,8 - - - 8 4 15 8 NNE 1020,6 20 - -
27.03.2017 16:00:00 18,8 2,6 - - - 5 3 16 9 NNE 1020,9 20 - 0,0
27.03.2017 15:00:00 17,8 1,7 23,2 11,6 9,1 4 2 17 9 N 1021,4 20 60 0,0
27.03.2017 14:00:00 16,2 0,7 20,6 10,7 9,1 8 5 16 8 N 1022,1 20 60 0,0
27.03.2017 13:00:00 14,8 -0,1 18,0 9,9 9,1 6 3 13 7 WNW 1022,6 20 60 0,0
27.03.2017 12:00:00 13,0 -0,3 14,6 9,3 9,1 5 3 14 8 NNE 1023,0 20 60 0,0
27.03.2017 11:00:00 10,7 -0,8 - - - 8 4 16 9 NNE 1023,2 20 - -
27.03.2017 10:00:00 9,5 -0,1 - - - 9 5 16 9 NNE 1023,2 20 - 0,0
27.03.2017 09:00:00 7,2 0,6 - - - 5 3 8 4 N 1023,2 20 - 0,0
27.03.2017 08:00:00 2,8 -0,1 0,4 9,3 9,0 0 0 13 7 N 1023,3 20 19 0,0
27.03.2017 07:00:00 4,8 0,4 3,3 9,6 9,1 8 4 16 9 NNE 1022,3 20 0 0,0
27.03.2017 06:00:00 5,1 1,0 0,6 10,0 9,1 10 5 13 7 N 1021,9 20 0 0,0
27.03.2017 05:00:00 4,4 1,1 0,2 10,3 9,1 6 3 10 5 N 1021,9 20 0 0,0
27.03.2017 04:00:00 6,2 1,5 2,5 10,7 9,1 5 3 13 7 N 1021,9 20 0 0,0
27.03.2017 03:00:00 6,5 1,8 4,4 11,0 9,0 8 4 16 9 N 1021,9 20 0 0,0
27.03.2017 02:00:00 5,8 1,7 3,1 11,3 9,0 9 5 18 10 N 1022,3 20 0 0,0
27.03.2017 01:00:00 5,4 1,7 1,0 11,8 9,0 8 4 12 7 N 1022,6 20 0 0,0
27.03.2017 00:00:00 5,5 1,0 1,2 12,2 9,0 4 2 6 3 N 1022,7 20 0 0,0
26.03.2017 23:00:00 7,3 1,6 1,7 12,6 9,0 6 3 11 6 S 1022,8 20 0 0,0
26.03.2017 22:00:00 8,5 1,4 2,7 12,9 9,0 4 2 8 4 N 1021,9 20 0 0,0
26.03.2017 21:00:00 10,8 1,9 5,3 13,3 9,0 4 2 10 6 N 1021,5 20 0 0,0
26.03.2017 20:00:00 13,6 1,9 - - - 5 3 11 6 NE 1021,1 20 - -
26.03.2017 19:00:00 15,6 2,0 - - - 9 5 31 17 N 1020,3 20 - 0,0
26.03.2017 18:00:00 16,4 2,0 17,8 13,1 9,0 11 6 23 12 NNW 1020,2 20 56 0,0
26.03.2017 17:00:00 16,3 1,9 20,1 12,6 9,0 8 5 23 13 NNE 1020,2 20 60 0,0
26.03.2017 16:00:00 16,1 2,5 20,1 11,9 9,0 11 6 34 18 NE 1020,4 20 60 0,0
26.03.2017 15:00:00 15,4 2,2 - - - 13 7 26 14 N 1020,6 20 - 0,0
26.03.2017 14:00:00 14,3 1,2 - - - 15 8 29 16 NNE 1021,4 20 - -
26.03.2017 13:00:00 13,9 1,2 16,9 9,6 9,0 12 6 22 12 NNE 1021,6 20 60 0,0
26.03.2017 12:00:00 12,3 1,3 15,4 9,0 9,0 8 5 18 10 N 1021,7 20 60 0,0
26.03.2017 11:00:00 10,9 1,4 - - - 5 3 16 9 NNW 1022,0 20 - -
26.03.2017 10:00:00 9,2 0,9 - - - 8 4 21 11 NE 1022,5 20 - 0,0
26.03.2017 09:00:00 7,1 0,7 5,3 8,7 8,9 8 4 16 8 NNE 1022,2 20 60 0,0
26.03.2017 08:00:00 5,5 0,1 4,1 8,9 9,0 8 4 16 9 N 1021,8 20 17 0,0
26.03.2017 07:00:00 5,2 0,2 4,3 9,2 9,0 13 7 20 11 N 1021,3 20 0 0,0
26.03.2017 06:00:00 5,5 0,5 3,6 9,5 9,0 11 6 17 9 N 1020,8 20 0 0,0
26.03.2017 05:00:00 6,0 0,5 4,6 9,8 9,0 13 7 19 10 N 1020,0 20 0 0,0
26.03.2017 04:00:00 6,4 0,3 4,7 10,1 9,0 9 5 21 11 N 1019,8 20 0 0,0
26.03.2017 03:00:00 6,3 0,4 2,9 10,4 9,0 8 4 14 8 N 1019,6 20 0 0,0
26.03.2017 02:00:00 7,4 0,4 - - - 9 5 18 10 N 1019,4 20 - -
26.03.2017 01:00:00 8,5 0,5 7,6 11,0 9,0 12 7 22 12 N 1019,1 20 0 0,0
26.03.2017 00:00:00 9,3 0,5 - - - 13 7 22 12 N 1018,7 20 - 0,0
25.03.2017 23:00:00 10,2 1,0 9,2 11,6 9,0 14 8 26 14 N 1018,4 20 0 0,0
25.03.2017 22:00:00 10,9 1,9 10,0 11,9 9,0 14 8 29 16 N 1018,0 20 0 0,0
25.03.2017 21:00:00 12,4 2,3 11,5 12,1 8,9 18 10 36 19 N 1017,5 20 0 0,0
25.03.2017 20:00:00 13,6 2,8 12,8 12,2 9,0 20 11 40 21 N 1016,9 20 27 0,0
25.03.2017 19:00:00 16,1 3,2 - - - 24 13 46 25 N 1016,3 20 - 0,0
25.03.2017 18:00:00 17,5 3,7 - - - 28 15 48 26 N 1016,3 20 - 0,0
25.03.2017 17:00:00 18,1 3,5 - - - 29 16 50 27 N 1016,7 20 - -
25.03.2017 16:00:00 17,3 3,6 20,0 10,9 8,9 28 15 51 28 N 1017,5 20 60 0,0
25.03.2017 15:00:00 16,4 4,4 18,1 10,3 8,9 24 13 45 25 N 1018,6 20 60 0,0
25.03.2017 14:00:00 14,8 4,8 17,0 9,6 9,0 26 14 44 24 N 1019,7 20 60 0,0
25.03.2017 13:00:00 13,1 4,8 13,9 9,0 9,0 24 13 40 22 N 1020,9 20 57 0,0
25.03.2017 12:00:00 11,3 5,0 11,7 8,6 9,0 22 12 41 22 N 1022,1 16 54 0,0
25.03.2017 11:00:00 9,5 4,7 9,7 8,4 8,9 19 10 37 20 N 1023,1 14 60 0,0
25.03.2017 10:00:00 8,0 4,6 6,6 8,3 8,9 19 10 32 17 N 1023,5 10 60 0,0
25.03.2017 09:00:00 6,0 4,5 4,5 8,4 8,9 14 7 24 13 N 1023,9 6 9 0,0
25.03.2017 08:00:00 4,7 3,5 4,0 8,7 9,0 10 6 18 10 N 1024,5 5 5 0,0
25.03.2017 07:00:00 4,8 3,5 4,3 8,9 9,0 10 5 18 10 N 1024,4 6 0 0,0
25.03.2017 06:00:00 5,2 3,8 4,6 9,1 8,9 11 6 22 12 N 1024,3 6 0 0,0
25.03.2017 05:00:00 5,7 4,2 - - - 15 8 24 13 N 1024,5 6 - -
25.03.2017 04:00:00 6,4 4,6 5,8 9,5 8,9 13 7 23 13 N 1024,9 7 0 0,0
25.03.2017 03:00:00 6,9 4,9 6,2 9,7 8,9 11 6 20 11 N 1025,3 8 0 0,0
25.03.2017 02:00:00 7,3 5,1 - - - 13 7 21 11 N 1025,4 8 - -
25.03.2017 01:00:00 7,6 5,2 7,1 10,1 8,9 15 8 27 15 N 1025,8 9 0 0,0
25.03.2017 00:00:00 8,4 5,5 - - - 15 8 28 15 N 1025,8 10 - 0,0
24.03.2017 23:00:00 8,9 5,8 8,4 10,5 8,9 14 8 24 13 N 1025,7 10 0 0,0
24.03.2017 22:00:00 9,1 5,8 8,6 10,6 8,9 16 9 28 15 N 1025,2 9 0 0,0
24.03.2017 21:00:00 9,3 6,0 - - - 18 10 31 17 N 1024,8 9 - 0,0
24.03.2017 20:00:00 9,9 6,2 9,4 10,9 8,9 16 8 39 21 N 1024,2 11 0 0,0
24.03.2017 19:00:00 10,9 6,4 10,8 11,0 8,9 20 11 40 22 N 1023,6 13 0 0,0
24.03.2017 18:00:00 11,7 6,6 12,2 10,9 8,9 24 13 39 21 N 1023,3 15 0 0,0
24.03.2017 17:00:00 12,5 7,0 13,4 10,7 8,9 23 13 38 21 N 1023,2 16 0 0,0
24.03.2017 16:00:00 12,3 7,0 13,2 10,5 8,8 21 12 40 22 N 1023,2 16 0 0,0
24.03.2017 15:00:00 12,5 7,0 13,3 10,4 8,9 18 10 39 21 N 1023,1 17 0 0,0
24.03.2017 14:00:00 - - - - - - - - - - - - - -

tt = Température de l'air
td = dewpoint
tt 5cm = Température de l'air 5cm
tt -20cm = Température de l'air -20cm
tt -100cm = Température de l'air -100cm
ff = Vitesse du vent
fx = gusts
dd = Direction du vent
ppp = reduced air pressure
vv = visibility
sd = Ensoleillement
rr = Quantités de précipitations

stations d'obs. à proximité